Temperature
17 17 17 17 17 17 17 17 17 16 16 16 16 16 15 15 15 15 15 15 14 14 14 14 14 14 13 13 13 13 13 13 13 12 12 12 12 12
17 17 17 17 17 17 17 17 17 17 16 16 15 15 15 15 15 14 14 14 14 14 13 13 13 13 13 13 13 12 12 12 12 12 12 12 11 11
16 16 16 16 16 16 16 17 16 16 16 15 15 15 15 14 14 14 13 13 13 13 13 13 13 13 12 12 12 12 12 12 11 11 11 11 11 11
16 16 16 16 16 16 16 16 16 16 15 15 15 14 14 14 13 13 13 13 13 12 12 12 12 12 12 12 11 11 11 11 11 11 11 11 10 10
16 16 16 16 16 16 16 15 15 15 15 15 14 14 14 13 13 13 12 12 12 12 12 12 12 12 11 11 11 11 11 10 10 10 10 10 10 10
16 15 15 15 15 15 15 15 15 15 14 14 14 13 13 13 13 12 12 12 11 11 11 11 11 11 11 11 10 10 10 10 10 10 9 9 9 9
15 15 15 15 15 15 15 15 14 14 14 14 13 13 13 13 12 12 12 11 11 11 11 10 10 10 10 10 10 10 10 9 9 9 9 9 8 8
15 15 15 15 14 14 14 14 14 14 13 13 13 13 13 13 12 12 12 11 11 11 10 10 10 10 10 10 9 9 9 9 9 9 8 8 8 8
14 14 14 14 14 14 14 14 14 13 13 13 13 13 12 12 12 12 12 11 11 11 10 10 10 10 9 9 9 9 9 9 8 8 8 8 8 7
14 14 14 13 13 13 13 13 13 13 13 13 12 12 12 12 12 12 11 11 11 10 10 10 10 10 9 9 9 9 8 8 8 8 8 7 7 7
14 13 13 13 13 13 12 12 12 12 12 12 12 12 12 12 11 11 11 11 10 10 10 10 10 9 9 9 9 8 8 8 8 8 7 7 7 7
13 13 13 13 13 12 12 12 12 11 11 11 11 11 11 11 11 11 11 11 10 10 10 10 9 9 9 9 9 8 8 8 8 7 7 7 7 7
12 12 12 12 12 12 12 12 11 11 11 11 11 11 11 10 10 10 10 10 10 10 10 9 9 9 9 9 8 8 8 8 8 8 7 7 7 7
12 12 12 12 12 11 11 11 11 11 11 11 11 11 10 10 10 10 10 10 10 10 9 9 9 9 9 8 8 8 8 8 8 8 7 7 7 7
12 12 11 11 11 11 11 11 11 11 11 11 10 10 10 10 10 10 10 10 9 9 9 9 9 9 8 8 8 8 8 8 8 7 7 7 7 7
11 11 11 11 11 10 10 10 10 10 10 10 10 10 10 10 9 9 9 9 9 9 9 9 9 8 8 8 8 8 8 8 8 7 7 7 7 7
11 11 10 10 10 10 10 10 10 10 10 10 10 10 10 10 9 9 9 9 9 9 9 9 9 8 8 8 8 8 8 8 8 8 7 7 7 7
10 10 10 10 10 10 10 10 10 10 9 9 9 9 9 9 9 9 9 9 9 9 9 9 8 8 8 8 8 8 8 8 8 8 8 7 7 7
10 10 10 10 9 10 9 9 9 9 9 9 9 9 9 9 9 9 9 9 9 9 9 9 8 8 8 8 8 8 8 8 8 8 8 7 7 7
10 9 9 9 9 9 9 9 9 9 9 9 9 9 9 9 9 9 9 9 9 9 9 9 9 8 8 8 8 8 8 8 8 7 7 7 7 7
9 9 9 9 9 9 9 9 9 8 9 9 8 8 8 9 9 9 9 9 9 9 9 9 9 8 8 8 8 8 8 8 8 8 8 7 7 7
9 9 9 9 9 9 9 9 8 8 8 8 8 8 8 8 8 8 8 8 8 8 8 8 8 8 8 8 8 8 8 8 8 8 8 7 7 7
9 9 9 9 8 8 8 8 8 8 8 8 8 8 8 8 8 8 8 8 8 8 8 8 8 8 8 8 8 8 8 8 8 7 7 7 7 7
Wind_Speed
2 2 2 3 2 2 2 2 2 2 1 1 1 2 5 6 8 9 9 10 11 10 9 8 8 8 7 6 6 5 5 4 4 3 2 1 1 1
1 1 2 2 2 2 1 1 2 2 2 1 1 2 4 5 9 9 10 11 10 10 9 9 9 8 7 6 6 6 5 5 5 5 4 4 3 3
1 1 1 1 2 2 1 1 1 1 2 1 1 2 3 5 7 9 10 9 9 10 10 9 9 8 8 7 6 6 6 6 6 6 6 6 6 6
1 2 2 1 2 2 2 1 0 1 2 3 2 2 3 4 6 6 7 8 8 9 10 9 9 9 8 7 7 7 7 7 7 7 7 7 7 7
1 1 2 2 2 2 2 2 1 1 2 3 3 2 3 3 4 4 5 5 7 8 9 9 8 8 8 8 7 7 7 7 7 7 7 7 7 7
1 1 2 2 2 2 1 1 1 0 1 3 3 3 3 3 3 3 3 3 4 6 7 8 8 8 8 7 7 6 6 6 7 7 7 7 7 7
1 2 3 4 4 3 2 2 2 1 1 2 3 3 3 3 3 3 4 4 3 4 4 6 7 6 6 6 6 6 5 5 6 7 7 7 7 7
1 1 3 4 4 5 5 5 3 1 1 2 2 2 3 2 2 3 3 3 2 3 4 4 6 4 6 7 7 7 7 6 6 6 6 6 6 5
3 2 2 3 3 2 3 3 4 4 2 1 2 2 2 2 3 3 2 2 2 3 3 2 3 4 6 8 10 9 8 7 7 6 5 5 4 3
4 4 4 4 6 5 3 4 4 4 3 2 2 1 2 2 2 3 4 3 2 2 3 2 3 2 4 7 10 11 10 9 8 8 7 6 4 3
4 6 5 5 7 7 3 2 3 2 5 6 5 5 5 4 3 1 2 3 2 2 1 1 2 2 2 4 9 11 11 11 10 9 8 8 7 6
4 5 8 7 7 7 4 3 2 2 2 3 3 3 3 3 3 2 1 2 1 1 1 1 1 2 2 2 6 10 10 11 12 11 11 10 9 7
3 3 4 6 6 6 5 3 2 2 1 1 3 2 2 2 2 2 1 1 1 1 2 1 1 1 1 2 3 6 8 7 9 10 12 13 12 10
3 4 4 4 4 4 3 3 3 3 2 0 2 2 1 1 1 2 3 2 2 2 4 3 1 2 1 1 1 3 4 7 7 7 9 12 14 14
3 5 4 3 1 1 1 2 3 2 1 1 1 1 1 2 2 1 2 3 3 4 5 6 3 2 2 2 2 2 2 3 5 4 5 7 8 8
3 3 3 1 1 1 1 2 1 2 2 2 1 1 1 2 2 2 2 2 2 2 4 6 5 3 3 3 2 2 2 3 3 4 4 5 7 9
2 2 1 1 1 1 1 1 1 0 1 1 1 1 1 0 1 1 2 2 2 2 2 3 5 5 4 4 3 3 3 3 3 4 4 4 5 7
1 1 1 1 1 1 1 1 1 1 1 1 1 1 1 1 1 1 2 2 2 2 2 2 3 3 3 3 5 4 4 3 3 3 3 4 4 4
0 1 0 0 1 1 1 1 1 1 1 1 1 2 2 2 1 2 2 2 2 2 2 2 3 3 4 4 4 6 4 3 3 3 3 3 4 4
1 1 1 0 1 1 1 1 2 2 2 2 2 2 2 2 2 2 2 2 3 3 3 3 3 3 4 4 3 4 8 5 3 4 4 4 4 5
1 1 1 1 1 1 1 1 2 1 2 2 2 3 3 3 3 3 2 3 4 4 4 4 4 6 4 3 3 4 4 10 9 6 5 4 4 4
1 1 1 1 1 1 1 1 1 1 1 2 2 3 3 3 4 4 3 3 4 4 4 4 3 3 3 4 6 5 4 5 9 14 13 11 5 5
1 1 1 1 1 1 1 1 2 2 2 2 3 3 4 4 4 4 4 4 3 4 4 3 3 3 4 5 6 5 6 5 5 5 7 14 17 17
Wind_Direction
258 261 268 273 268 261 247 226 220 229 231 210 122 100 108 113 121 122 116 122 123 122 120 118 113 106 98 90 82 81 79 76 73 74 96 150 164 179
277 308 304 305 306 300 286 248 225 217 216 184 151 135 116 114 120 115 111 120 124 123 119 113 108 103 97 91 88 84 79 78 80 76 77 85 99 110
304 301 310 334 332 318 309 294 266 192 180 166 116 107 113 110 112 114 113 113 115 123 120 114 109 104 97 92 90 88 86 86 85 82 83 84 83 81
16 11 351 341 339 338 333 301 234 200 167 166 162 140 120 120 123 129 125 121 117 124 125 121 115 108 101 96 93 91 90 89 88 86 88 90 91 88
56 23 2 5 339 335 327 320 293 234 157 159 170 159 135 137 130 134 129 127 124 126 127 126 122 115 109 104 100 98 96 96 96 97 98 97 96 94
66 58 29 18 346 315 303 316 298 221 148 144 146 148 148 149 149 154 149 154 154 142 131 135 133 127 120 116 113 111 111 110 108 107 106 104 102 99
84 85 70 67 53 29 21 7 4 55 122 139 150 149 157 168 182 183 166 161 157 152 149 152 150 146 141 137 133 131 130 128 125 121 118 115 112 106
63 87 108 87 77 80 75 62 55 75 108 128 141 159 173 178 174 167 163 161 171 165 160 167 161 159 158 160 162 160 155 148 142 136 130 123 119 116
45 29 43 57 64 72 93 90 68 58 78 144 146 179 178 174 178 179 173 168 162 164 156 175 164 162 159 168 173 176 174 172 170 165 159 153 145 139
59 51 51 42 26 29 51 72 76 55 50 98 111 120 122 136 192 188 171 159 161 153 148 189 174 169 157 162 180 186 188 192 194 196 197 197 196 200
64 52 47 52 30 27 42 72 88 97 86 97 101 109 109 106 111 132 151 162 180 174 154 190 180 165 165 175 190 196 198 204 211 214 217 219 222 227
95 80 59 53 39 27 26 42 62 44 75 110 118 141 144 137 137 155 182 192 156 157 141 162 174 162 184 189 183 193 207 214 218 222 226 229 227 226
101 90 74 65 50 28 23 42 39 341 323 165 147 142 132 135 143 122 101 167 140 132 148 162 193 192 192 196 194 190 195 204 209 220 227 229 228 225
73 92 97 88 59 27 25 18 355 338 302 220 122 125 135 146 150 145 144 155 171 164 163 165 193 195 211 232 224 202 199 197 195 206 218 223 227 231
85 103 123 118 76 3 306 330 337 317 319 68 89 133 148 151 151 162 182 189 195 193 181 189 202 210 216 224 235 215 210 210 200 206 208 204 210 216
122 131 140 144 297 322 312 290 287 338 360 5 2 29 115 159 181 190 212 208 199 195 193 196 206 209 223 235 236 232 217 222 217 212 214 219 217 213
121 147 180 190 219 238 244 260 277 265 304 295 302 300 285 239 226 218 226 228 223 212 204 208 212 215 212 215 238 242 233 233 228 214 211 223 226 221
103 190 185 214 243 229 235 246 286 321 322 324 307 315 313 292 281 264 244 238 243 232 220 215 206 216 236 245 224 232 236 234 229 221 222 227 236 228
95 280 299 6 342 356 331 323 352 18 353 330 314 308 299 289 263 262 271 267 258 255 238 223 218 227 247 256 247 223 229 240 237 239 237 234 238 234
270 315 1 10 334 330 338 4 18 32 2 336 328 317 313 305 294 273 264 276 272 263 259 246 232 232 244 250 251 240 218 224 238 243 247 246 240 237
255 292 323 333 345 341 356 20 18 7 344 327 319 307 298 296 297 288 280 275 274 267 260 254 239 234 238 250 259 248 225 222 225 225 235 243 247 238
284 290 335 341 352 0 43 18 346 337 326 306 304 304 307 309 302 293 292 283 273 272 265 259 245 235 243 254 263 259 245 236 239 240 238 235 228 236
330 350 5 6 13 32 29 351 333 334 337 326 323 319 314 312 302 296 298 295 292 293 289 276 268 259 266 266 270 271 268 254 247 242 243 242 241 243
Height
1549 1549 1550 1550 1551 1551 1551 1552 1552 1552 1552 1553 1553 1553 1553 1553 1553 1553 1553 1553 1553 1553 1553 1553 1553 1553 1553 1553 1553 1553 1552 1552 1551 1551 1551 1551 1551 1551
1547 1547 1547 1547 1548 1548 1548 1548 1549 1549 1549 1549 1550 1551 1551 1550 1551 1551 1551 1551 1551 1551 1551 1551 1551 1551 1551 1551 1551 1550 1550 1549 1549 1548 1548 1548 1547 1547
1544 1544 1544 1545 1545 1545 1545 1545 1545 1546 1546 1546 1547 1548 1548 1548 1548 1548 1548 1549 1549 1549 1549 1549 1549 1549 1549 1548 1548 1548 1547 1547 1546 1546 1545 1545 1544 1544
1541 1542 1542 1542 1542 1542 1542 1543 1543 1543 1543 1543 1544 1545 1545 1546 1546 1547 1547 1547 1547 1548 1548 1548 1548 1547 1547 1546 1546 1546 1545 1544 1544 1543 1543 1543 1542 1542
1539 1539 1540 1540 1540 1540 1540 1540 1540 1540 1541 1541 1541 1542 1543 1544 1544 1545 1546 1546 1546 1546 1546 1546 1546 1546 1546 1545 1545 1544 1544 1543 1542 1542 1541 1541 1540 1540
1537 1538 1538 1538 1537 1537 1537 1537 1538 1538 1538 1538 1539 1539 1540 1541 1542 1543 1543 1544 1545 1545 1545 1545 1545 1545 1544 1544 1544 1543 1542 1542 1541 1541 1540 1540 1539 1539
1536 1536 1536 1536 1536 1535 1535 1535 1535 1535 1535 1536 1537 1537 1538 1539 1540 1541 1542 1542 1543 1543 1543 1543 1543 1543 1543 1543 1542 1542 1541 1541 1540 1540 1539 1539 1538 1538
1535 1535 1535 1534 1534 1534 1533 1533 1533 1533 1533 1534 1534 1535 1536 1537 1538 1539 1539 1540 1540 1542 1542 1542 1542 1542 1542 1541 1541 1541 1540 1540 1539 1539 1538 1538 1538 1537
1534 1534 1534 1533 1533 1532 1531 1531 1531 1531 1532 1532 1532 1533 1534 1534 1535 1536 1537 1537 1538 1539 1540 1540 1540 1540 1540 1540 1540 1540 1539 1539 1538 1538 1537 1537 1537 1537
1533 1533 1532 1532 1532 1531 1530 1530 1530 1530 1530 1530 1531 1531 1532 1533 1534 1534 1535 1536 1537 1537 1538 1538 1538 1538 1539 1539 1539 1539 1538 1538 1537 1537 1536 1536 1536 1536
1532 1532 1532 1531 1531 1530 1530 1530 1529 1529 1529 1530 1530 1530 1531 1531 1532 1532 1533 1533 1534 1534 1535 1535 1535 1535 1536 1536 1537 1537 1537 1536 1536 1535 1535 1535 1535 1534
1531 1531 1530 1530 1530 1530 1529 1529 1529 1529 1529 1529 1529 1529 1529 1530 1530 1530 1531 1531 1531 1531 1531 1532 1532 1533 1533 1534 1534 1534 1534 1534 1534 1534 1534 1533 1533 1533
1531 1530 1530 1530 1530 1529 1529 1529 1529 1529 1529 1529 1528 1528 1529 1529 1529 1529 1529 1529 1529 1529 1529 1530 1530 1531 1531 1532 1532 1532 1532 1532 1532 1532 1532 1532 1531 1531
1530 1530 1530 1529 1529 1529 1529 1529 1529 1529 1528 1529 1528 1528 1528 1528 1528 1528 1528 1528 1528 1528 1528 1528 1528 1528 1529 1529 1530 1530 1530 1530 1530 1529 1529 1529 1529 1529
1529 1529 1529 1529 1529 1529 1529 1529 1529 1528 1528 1528 1528 1527 1527 1527 1527 1527 1526 1526 1526 1526 1526 1526 1527 1527 1527 1527 1527 1528 1528 1528 1528 1528 1527 1527 1527 1526
1528 1528 1528 1528 1528 1528 1528 1528 1528 1528 1528 1528 1527 1527 1527 1526 1526 1526 1525 1525 1525 1525 1525 1525 1525 1525 1525 1525 1525 1525 1525 1526 1525 1525 1524 1524 1524 1524
1527 1527 1527 1527 1527 1527 1527 1528 1527 1527 1527 1527 1527 1526 1526 1525 1525 1525 1525 1524 1524 1524 1524 1523 1523 1523 1523 1523 1523 1523 1523 1523 1522 1522 1522 1521 1521 1520
1526 1526 1526 1527 1527 1527 1527 1526 1526 1526 1526 1526 1525 1525 1525 1524 1524 1524 1523 1523 1523 1522 1522 1522 1522 1521 1521 1521 1521 1520 1520 1520 1520 1519 1519 1518 1517 1517
1525 1525 1526 1526 1526 1526 1526 1526 1525 1525 1525 1525 1525 1524 1524 1523 1523 1522 1522 1521 1521 1521 1520 1520 1520 1519 1519 1518 1518 1518 1517 1517 1516 1516 1515 1515 1514 1513
1524 1525 1525 1525 1525 1525 1525 1524 1524 1523 1523 1524 1523 1523 1522 1522 1521 1520 1520 1519 1519 1518 1518 1517 1517 1516 1515 1515 1514 1514 1514 1513 1513 1512 1511 1511 1510 1509
1524 1524 1524 1524 1524 1524 1523 1523 1522 1522 1522 1522 1522 1521 1521 1520 1519 1518 1518 1517 1516 1515 1514 1514 1513 1513 1512 1512 1511 1509 1509 1509 1508 1507 1507 1506 1505 1505
1523 1524 1523 1523 1523 1523 1522 1522 1521 1521 1521 1521 1520 1519 1519 1518 1517 1516 1515 1514 1513 1512 1511 1510 1510 1509 1508 1507 1506 1505 1504 1504 1504 1503 1502 1502 1501 1499
1523 1522 1522 1522 1522 1522 1521 1521 1520 1520 1519 1519 1518 1517 1516 1515 1514 1513 1512 1511 1509 1508 1507 1506 1506 1505 1504 1503 1502 1502 1500 1499 1498 1498 1497 1497 1497 1496